FREGAT DEB, 46411

Orbit data source: Space-Track

FREGAT DEB, 46411 is space debris in LEO originally from a launch on Mon, 18 Jul 2011 UTC launched from the Tyuratam Missile And Space Complex (TTMTR). Debris objects in space refer to the collection of defunct objects orbiting the Earth. Examples of debris include non-operational satellites, rocket bodies, and fragments generated from explosions, collisions, or faulty payload assembly.

Loading next visibility...
Identifier
46411, 2011-037LS
Orbit
LEO
Country
Flag of CISCIS
Related business
Manufacturer
Lavochkin
Mission
Spacecraft
Bus & Motor
Unknown
Mass
Unknown
Launch date (UTC)
2011-07-18 (14 years ago)
Launch vehicle
Unknown
Launch site
Tyuratam Missile And Space Complex (TTMTR)
Object type
Payload
Rocket body
Debris
Shape & HBR
Unknown shape, 0.1 m
Radar Cross Section
Small (<0.1 m²)

Expand to show TLE details & history
Last TLE update: 2 days ago

TLE from 2 days ago
0 FREGAT DEB
1 46411U 11037LS  25305.71012930  .00022699  00000-0  63799-2 0  9990
2 46411  51.4814 189.3593 1552929  22.1935 343.9267 11.89041919222478
Epoch: 2025-11-01T17:02Z
TLE epoch observation values (Epoch: 2025-11-01T17:02:35.171Z)
Latitude
0.00004°
Longitude
-107.52352°
Altitude
540.049 km
Speed
8.131 km/s
True Right ascension
12h 37m 26s
True Declination
0° 00' 00"
Sunlit
Object was in daylight at epoch
Visualization orbit readout
Latitude
Unknown
Longitude
Unknown
Altitude
Unknown
Speed
Unknown
Apparent Right ascension
Unknown
Apparent Declination
Unknown
Sunlit
N/A
Visualization observer readout
Local Sidereal Time
05:57:41
Azimuth
Unknown
Elevation
Unknown
Doppler factor
Unknown
Orbital elements
Apogee altitude
2,990.019 km
Perigee altitude
471.509 km
Semi-major axis
8,108.901 km
Eccentricity
0.15529
Inclination
51.4814°
RAAN
189.3593°
Arg. of periapsis
22.1935°
True anomaly
337.89449°
Mean anomaly
343.9267°
Eccentric anomaly
341.03506°
Mean motion
2.97235 °/min
Orbital period
121.12 mins
BSTAR
0.0063799
Loading maneuver chart data...
Computing Atmospheric mass density...

Documentation

Showing up to 5 results
|